Regional Weather Roundup
Issued by NWS

Home | Current Version | Previous Version | Graphics & Text | Print | Product List | Glossary On
Versions: 1 2 3 4 5 6 7 8 9 10 11 12 13 14 15 16 17 18 19 20 21 22 23 24 25 26 27 28 29 30 31 32 33 34 35 36 37 38 39 40 41 42 43 44 45 46 47 48 49 50
000
ASUS45 KBOU 242207
RWRCO

WEATHER ROUNDUP FOR COLORADO
NATIONAL WEATHER SERVICE DENVER/BOULDER CO
400 PM MDT FRI APR 24 2015

NOTE: "FAIR" INDICATES FEW OR NO CLOUDS BELOW 12000 FEET WITH NO
SIGNIFICANT WEATHER AND/OR OBSTRUCTIONS TO VISIBILITY.

COZ001>005-013-030-031-242300-
...NORTHWEST COLORADO...

CITY           SKY/WX    TMP DP  RH WIND       PRES   REMARKS
CRAIG          CLOUDY    54  30  40 S15G28    29.73F
HAYDEN         PTSUNNY   48  28  46 W26G37    29.76R
MEEKER         CLOUDY    57  27  31 SW8       29.75F
MOUNT WERNER   NOT AVBL
STEAMBOAT SPGS CLOUDY    50  27  41 S6        29.75R
WALDEN         CLOUDY    54  18  24 W16G22    29.75S
$$

COZ006>008-011-242300-
...WEST CENTRAL VALLEYS...

CITY           SKY/WX    TMP DP  RH WIND       PRES   REMARKS
GRAND JUNCTION CLOUDY    63  26  24 VRB3      29.70F
MONTROSE       CLOUDY    56  24  29 S17       29.81R
EAGLE          MOSUNNY   52  30  43 NW16G28   29.81R
RIFLE          CLOUDY    51  34  52 E12       29.81S
DELTA          CLOUDY    61  26  25 SW18G32   29.75R
NUCLA          CLOUDY    55  30  38 E13       29.84S
$$

COZ017>023-064>068-242300-
...SOUTHWEST COLORADO...

CITY           SKY/WX    TMP DP  RH WIND       PRES   REMARKS
DURANGO        CLOUDY    49  30  48 VRB5      29.86F
CORTEZ         CLOUDY    59  20  22 NW9       29.81F
PAGOSA SPRINGS CLOUDY    43  30  61 E5        29.91F
TELLURIDE      LGT SNOW  32  31  95 S5        29.97R WCI  28
WOLF CREEK PAS NOT AVBL
$$

COZ009-010-012-014-032>034-037-058>063-242300-
...CENTRAL COLORADO...

CITY           SKY/WX    TMP DP  RH WIND       PRES   REMARKS
ASPEN          CLOUDY    47  24  40 CALM      29.82F
BUENA VISTA    CLOUDY    45  27  49 NW30G38   29.79R
COPPER MTN     CLOUDY    30  23  74 W16G26    29.92R WCI  19
BERTHOUD PASS  FAIR      25  18  74 NW26G33   29.90F HAZE    WCI   9
COTTONWOOD PAS CLOUDY    41  23  48 NW9G33    29.84R
GUNNISON       CLOUDY    45  27  49 N13       29.88F
KREMMLING      LGT RAIN  41  32  70 W23G30    29.81R
LEADVILLE      CLOUDY    33  22  63 S10G20    29.85F WCI  25
MONARCH PASS   LGT SNOW  25  21  86 MISG      30.02S VSB 3/4
SALIDA         CLOUDY    53  26  34 W36G46    29.84R
SUNLIGHT       LGT SNOW  30  30 100 CALM      29.95S
WILKERSON PASS CLOUDY    36  21  55 CALM      29.89F
$$

COZ069>075-242300-
...SAN LUIS VALLEY/SANGRE DE CRISTO MOUNTAINS...

CITY           SKY/WX    TMP DP  RH WIND       PRES   REMARKS
ALAMOSA        CLOUDY    45  29  53 NW21G28   29.83R
LA VETA PASS   CLOUDY    36  27  69 S8        29.85F
SAGUACHE       CLOUDY    46  27  46 NW25G37   29.83R
$$

COZ035-036-038>040-242300-
...NORTHERN COLORADO FRONT RANGE...

CITY           SKY/WX    TMP DP  RH WIND       PRES   REMARKS
DENVER INTL AP CLOUDY    59  28  30 VRB5G17   29.65R
DMNS CITY PARK   N/A     57  30  35 W17G35    29.66R
AURORA         PTSUNNY   59  29  31 N17G23    29.66R
FRONT RANGE AP PTSUNNY   59  30  33 MISG      29.65S
ERIE MUNI ARPT CLOUDY    61  26  26 W7        29.66R
BOULDER MUN AP CLOUDY    59  30  33 SW12      29.66S
CENTENNIAL     CLOUDY    60  26  27 N14       29.65S
BROOMFIELD     LGT RAIN  57  30  35 W32G40    29.68R
FORT COLLINS   CLOUDY    61  32  33 NW16      29.67R
LONGMONT       CLOUDY    65  31  28 SW10      29.66S
$$

COZ041-046-047-076>085-087-088-242300-
...PIKES PEAK/PALMER DIVIDE AND SOUTHERN FOOTHILLS...

CITY           SKY/WX    TMP DP  RH WIND       PRES   REMARKS
COLO. SPRINGS  CLOUDY    55  30  38 W14       29.68F
A. F. ACADEMY  CLOUDY    53  29  38 W6        29.68F
ELLICOTT       CLOUDY   N/A N/A N/A E17G24    29.67S
FALCON         CLOUDY    54  27  35 W9        29.70F
FORT CARSON    PTSUNNY   55  32  41 NW17G29   29.66R
LIMON          CLOUDY    58  33  39 SE13      29.63R
MONUMENT HILL  CLOUDY    52  30  43 W12       29.69F
TRINIDAD       CLOUDY    58  31  35 W30G45    29.66R
$$

COZ042>045-048>051-090-091-242300-
...NORTHEAST COLORADO...

CITY           SKY/WX    TMP DP  RH WIND       PRES   REMARKS
GREELEY ARPT   CLOUDY    59  32  36 N28G39    29.65R
AKRON          LGT RAIN  57  39  51 CALM      29.61R
BURLINGTON     CLOUDY    64  33  31 NE15      29.54F
WRAY           CLOUDY    72  43  34 E17G23    29.53F
STERLING       CLOUDY    66  32  28 N22       29.57S
HOLYOKE        CLOUDY    72  36  26 NE3       29.54F
FORT MORGAN    CLOUDY    64  29  27 N15       29.60F
$$

COZ086-089-092>099-242300-
...SOUTHEAST COLORADO...

CITY           SKY/WX    TMP DP  RH WIND       PRES   REMARKS
PUEBLO         CLOUDY    66  29  24 E10       29.59F
LA JUNTA       PTSUNNY   73  22  14 SW14      29.53F
LAMAR          MOSUNNY   73  29  19 SW10      29.49F
SPRINGFIELD      N/A     54  44  69 S18       29.56F
$$



USA.gov is the U.S. government's official web portal to all federal, state and local government web resources and services.